Location: Centerville
(32.8776°N, 96.6203°W)
Time: 13:34:49
(UTC+00:00)

USA 215 - Pass Details

Date: 17 June 2021
Orbit: 1100 x 1107 km, 123.0° (Epoch: 22 June)

Event Time Altitude Azimuth Distance (km) Brightness Sun altitude
Rises 03:04:42 0° 53° (NE) 3,917 6.0 -15.8°
Reaches altitude 10° 03:07:29 10° 63° (ENE) 2,957 5.3 -16.3°
Maximum altitude 03:13:16 33° 125° (SE) 1,751 3.8 -17.2°
Drops below altitude 10° 03:19:00 10° 187° (S) 2,948 5.2 -18.0°
Sets 03:21:45 0° 197° (SSW) 3,904 5.9 -18.4°
